BAW2167 EGLL-KTPA

Flight info

Callsign BAW2167
Flight time N/A
Altitude 32000
Route CPT L9 BUCGO DCT FELCA DCT OFSOX DCT BANBA DCT TOBOR/M084F320 DCT 5230N02000W 5130N03000W 4930N04000W 4730N05000W DCT OMSAT DCT CARAC M201 VEGAA Y493 TUBBS/N0501F320 Y493 BAHAA DCT HIBAC DADES2
Aircraft B77W/H-SDE1E2E3FGHIJ2J3J4J5M1RWXY/LB1D1

Departure

Time 2026-05-08 00:57
Airport London Heathrow Airport (EGLL)

Arrival

Time N/A
Airport Tampa International Airport (KTPA)
Time Latitude Longitude Altitude Speed Heading
2026-05-08 00:19 51.47316 -0.47733 90 ft 0 kts 92°
2026-05-08 00:35 51.47316 -0.47706 90 ft 0 kts 92°
2026-05-08 00:42 51.47316 -0.47739 90 ft 4 kts 92°
2026-05-08 00:42 51.47317 -0.47782 90 ft 4 kts 92°
2026-05-08 00:42 51.47318 -0.47821 90 ft 4 kts 90°
2026-05-08 00:42 51.47316 -0.47854 91 ft 4 kts 57°
2026-05-08 00:43 51.47306 -0.47872 92 ft 4 kts 11°
2026-05-08 00:43 51.47281 -0.47873 92 ft 4 kts 354°
2026-05-08 00:43 51.47264 -0.47870 92 ft 0 kts 355°
2026-05-08 00:46 51.47265 -0.47870 92 ft 2 kts 355°
2026-05-08 00:47 51.47348 -0.47878 90 ft 17 kts 357°
2026-05-08 00:47 51.47461 -0.47853 93 ft 17 kts 38°
2026-05-08 00:47 51.47489 -0.47680 92 ft 17 kts 88°
2026-05-08 00:47 51.47492 -0.47493 90 ft 17 kts 89°
2026-05-08 00:48 51.47493 -0.47307 90 ft 17 kts 90°
2026-05-08 00:48 51.47493 -0.47120 90 ft 17 kts 90°
2026-05-08 00:48 51.47494 -0.46934 92 ft 17 kts 89°
2026-05-08 00:48 51.47506 -0.46751 92 ft 17 kts 71°
2026-05-08 00:49 51.47523 -0.46574 93 ft 16 kts 93°
2026-05-08 00:49 51.47517 -0.46393 91 ft 16 kts 92°
2026-05-08 00:49 51.47516 -0.46212 90 ft 16 kts 90°
2026-05-08 00:49 51.47514 -0.46030 91 ft 16 kts 90°
2026-05-08 00:50 51.47516 -0.45851 90 ft 16 kts 90°
2026-05-08 00:50 51.47508 -0.45667 93 ft 18 kts 92°
2026-05-08 00:50 51.47507 -0.45437 93 ft 23 kts 90°
2026-05-08 00:50 51.47506 -0.45154 93 ft 26 kts 90°
2026-05-08 00:51 51.47508 -0.44863 93 ft 26 kts 89°
2026-05-08 00:51 51.47504 -0.44568 92 ft 26 kts 91°
2026-05-08 00:51 51.47505 -0.44271 93 ft 26 kts 89°
2026-05-08 00:51 51.47508 -0.43978 93 ft 26 kts 89°
2026-05-08 00:52 51.47477 -0.43708 93 ft 18 kts 118°
2026-05-08 00:52 51.47461 -0.43529 90 ft 16 kts 94°
2026-05-08 00:52 51.47518 -0.43435 93 ft 11 kts 11°
2026-05-08 00:52 51.47594 -0.43428 94 ft 11 kts
2026-05-08 00:53 51.47671 -0.43426 96 ft 11 kts
2026-05-08 00:53 51.47744 -0.43450 96 ft 11 kts 331°
2026-05-08 00:53 51.47767 -0.43542 95 ft 0 kts 268°
2026-05-08 00:56 51.47766 -0.43559 94 ft 10 kts 268°
2026-05-08 00:56 51.47757 -0.44122 92 ft 99 kts 268°
2026-05-08 00:56 51.47758 -0.45746 90 ft 192 kts 270°
2026-05-08 00:56 51.47744 -0.48248 492 ft 244 kts 269°
2026-05-08 00:57 51.47740 -0.50998 1984 ft 244 kts 268°
2026-05-08 00:57 51.47718 -0.53746 2815 ft 253 kts 265°
2026-05-08 00:57 51.47499 -0.56611 3447 ft 260 kts 255°
2026-05-08 00:57 51.46990 -0.59380 4161 ft 265 kts 249°
2026-05-08 00:58 51.46374 -0.62193 4886 ft 269 kts 250°
2026-05-08 00:58 51.45774 -0.65076 5568 ft 271 kts 251°
2026-05-08 00:58 51.45198 -0.67953 6175 ft 271 kts 252°
2026-05-08 00:58 51.44800 -0.70915 6418 ft 283 kts 269°
2026-05-08 00:59 51.44908 -0.74061 6216 ft 281 kts 274°
2026-05-08 00:59 51.45108 -0.77158 6103 ft 277 kts 277°
2026-05-08 00:59 51.45394 -0.80180 6054 ft 272 kts 278°
2026-05-08 00:59 51.45693 -0.83182 6004 ft 271 kts 278°
2026-05-08 01:00 51.45986 -0.86170 6012 ft 271 kts 278°
2026-05-08 01:00 51.46268 -0.89124 6001 ft 271 kts 278°
2026-05-08 01:00 51.46549 -0.92128 6005 ft 272 kts 277°
2026-05-08 01:00 51.46824 -0.95128 6003 ft 272 kts 277°
2026-05-08 01:01 51.47096 -0.98140 6007 ft 273 kts 277°
2026-05-08 01:01 51.47368 -1.01166 6007 ft 274 kts 277°
2026-05-08 01:01 51.47639 -1.04211 6007 ft 275 kts 277°
2026-05-08 01:01 51.47906 -1.07221 5999 ft 276 kts 277°
2026-05-08 01:02 51.48176 -1.10277 6000 ft 276 kts 277°
2026-05-08 01:02 51.48445 -1.13336 6000 ft 276 kts 277°
2026-05-08 01:02 51.48710 -1.16366 5998 ft 276 kts 277°
2026-05-08 01:02 51.48977 -1.19427 6005 ft 276 kts 277°